Home   Weather   Ratingen   Past weeks

Flag for Germany Past Weather in Ratingen, North Rhine-Westphalia, Germany — Yesterday and Last 2 Weeks

Now
23 °F

Passing clouds.


Feels Like: 18 °F
Forecast: 22 / 31 °F
Wind: 3 mph from North

Location: Duesseldorf

Current Time: Jan 17, 2017 at 1:58:27 am

Latest Report: Jan 17, 2017 at 1:20 am


Visibility: N/A

Pressure: 30.51 "Hg

Humidity: 93%

Dew Point: 21 °F

Location of RatingenLocation

Past Weather in Ratingen — Graph

°F

Ratingen Temperature Yesterday

Maximum temperature yesterday: 36 °F (at 2:20 pm)
Minimum temperature yesterday: 25 °F (at 11:50 pm)
Average temperature yesterday: 32 °F

High & Low Weather Summary for the Past Weeks

 TemperatureHumidityPressure
High46 °F (Jan 11, 2:20 pm)100% (Jan 2, 12:20 am)30.74 "Hg (Jan 2, 12:20 am)
Low16 °F (Jan 6, 4:50 am)56% (Jan 5, 1:20 pm)28.94 "Hg (Jan 13, 1:20 am)
Average35 °F87%30.11 "Hg
* Reported Jan 2 12:20 am — Jan 17 12:50 am, Ratingen, Weather by CustomWeather, © 2017

Note: Actual official high and low records may vary slightly from our data, if they occured in-between our weather recording intervals... More about our weather records

Advertising

Ratingen Weather History for the Previous 24 Hours

Scroll right to see more
 ConditionsComfort  
Time TempWeatherWind HumidityBarometerVisibility
12:50 am
Tue, Jan 17
23 °FPassing clouds.5 mph93%30.51 "HgN/A
12:20 am25 °FPassing clouds.3 mph86%30.51 "HgN/A
11:50 pm
Mon, Jan 16
25 °FPassing clouds.2 mph93%30.51 "HgN/A
11:20 pm27 °FPassing clouds.3 mph86%30.48 "HgN/A
10:50 pm27 °FPassing clouds.3 mph86%30.48 "HgN/A
10:20 pm27 °FPassing clouds.7 mph86%30.48 "HgN/A
9:50 pm28 °FPassing clouds.6 mph80%30.48 "HgN/A
9:20 pm27 °FPassing clouds.5 mph93%30.45 "HgN/A
8:50 pm28 °FPassing clouds.5 mph86%30.45 "HgN/A
8:20 pm27 °FClear.3 mph86%30.42 "Hg10 mi
7:50 pm28 °FClear.3 mph86%30.42 "Hg10 mi
7:20 pm28 °FClear.3 mph86%30.42 "Hg10 mi
6:50 pm30 °FClear.5 mph80%30.39 "Hg10 mi
6:20 pm32 °FClear.7 mph75%30.39 "Hg10 mi
5:50 pm30 °FPassing clouds.3 mph80%30.39 "HgN/A
5:20 pm32 °FPassing clouds.2 mph75%30.39 "HgN/A
4:50 pm34 °FPassing clouds.2 mph70%30.36 "HgN/A
4:20 pm34 °FPassing clouds.5 mph70%30.36 "HgN/A
3:50 pm36 °FPassing clouds.5 mph65%30.36 "HgN/A
3:20 pm36 °FPassing clouds.5 mph65%30.36 "HgN/A
2:50 pm34 °FPassing clouds.7 mph70%30.36 "HgN/A
2:20 pm36 °FScattered clouds.2 mph65%30.33 "HgN/A
1:50 pm34 °FPartly sunny.7 mph70%30.33 "HgN/A
1:20 pm34 °FPartly sunny.6 mph75%30.33 "HgN/A
12:50 pm34 °FPartly sunny.6 mph75%30.33 "HgN/A
12:20 pm34 °FPartly sunny.5 mph75%30.33 "HgN/A
11:50 am34 °FPartly sunny.7 mph75%30.33 "HgN/A
11:20 am34 °FPartly sunny.5 mph81%30.33 "HgN/A
10:50 am34 °FPartly sunny.6 mph81%30.33 "HgN/A
10:20 am34 °FPartly sunny.3 mph87%30.30 "HgN/A
9:50 am34 °FPartly sunny.3 mph81%30.30 "Hg5 mi
9:20 am32 °FPartly sunny.3 mph87%30.30 "Hg4 mi
8:50 am32 °FPartly sunny.3 mph93%30.30 "Hg4 mi
8:20 am32 °FPassing clouds.6 mph87%30.27 "Hg4 mi
7:50 am32 °FPassing clouds.5 mph93%30.27 "Hg4 mi
7:20 am32 °FIce fog.6 mph93%30.27 "Hg2 mi
6:50 am32 °FIce fog.6 mph93%30.24 "Hg2 mi
6:20 am32 °FIce fog.2 mph93%30.24 "Hg2 mi
5:50 am34 °FFog.3 mph93%30.24 "Hg2 mi
5:20 am34 °FFog.3 mph93%30.24 "Hg2 mi
4:50 am34 °FFog.3 mph87%30.24 "Hg2 mi
4:20 am34 °FFog.3 mph93%30.21 "Hg2 mi
3:50 am34 °FFog.5 mph93%30.21 "Hg2 mi
3:20 am34 °FFog.5 mph93%30.21 "Hg2 mi
2:50 am32 °FIce fog.3 mph93%30.21 "Hg2 mi
2:20 am32 °FIce fog.2 mph100%30.21 "Hg2 mi
1:50 am34 °FFog.3 mph93%30.21 "Hg2 mi
1:20 am32 °FIce fog.2 mph100%30.21 "Hg2 mi
Weather by CustomWeather, © 2017

See weather overviewHow to use our weather pages